Wind_Speed
12 11 11 10 10 9 9 8 7 6 6 5 5 5 4 4 3 3 3 3 3 3 3 3 2 2 3 3 3 3 3 3 3 3 2 2 2 2 2 3 3 2 2
14 14 13 12 12 11 10 10 9 8 8 7 6 6 6 5 5 5 5 5 5 5 5 5 4 4 4 4 4 4 4 4 4 4 4 4 4 4 4 4 4 4 4
15 15 15 14 13 13 12 11 11 10 9 9 8 7 7 7 7 7 7 7 7 7 7 6 6 6 6 6 6 5 5 5 5 5 5 5 5 5 5 5 5 5 5
17 17 17 16 15 15 14 13 12 12 11 11 10 10 10 9 9 9 9 9 9 9 8 8 8 8 8 8 7 7 7 7 6 6 6 7 7 7 7 7 7 7 7
19 19 18 18 17 16 16 15 14 14 14 13 13 12 12 12 11 11 10 10 11 10 10 10 10 10 10 9 9 9 9 8 8 8 8 8 9 9 9 9 9 9 9
21 20 20 20 19 18 17 17 16 16 15 16 15 14 14 14 13 13 12 12 12 12 12 12 12 11 11 11 11 10 10 10 10 10 9 10 10 10 10 10 11 11 11
23 22 22 22 21 20 19 19 18 18 17 17 17 17 16 16 15 15 14 14 14 13 13 13 13 13 13 12 12 12 11 11 11 11 11 11 11 12 12 12 12 13 13
25 25 24 23 23 23 22 22 21 20 20 19 18 18 17 17 16 16 16 16 15 15 15 15 14 14 14 14 14 14 14 13 13 13 13 13 13 14 14 14 15 15 15
27 26 26 26 25 25 24 23 23 22 22 21 20 20 20 19 18 18 18 18 18 17 17 17 16 16 16 16 16 16 16 16 15 15 16 16 16 16 16 16 16 17 17
28 27 27 27 27 26 26 25 25 23 23 23 22 21 20 21 20 20 20 20 20 20 19 19 18 18 18 18 18 18 18 18 18 18 18 18 18 19 19 19 19 19 19
29 29 28 28 28 28 27 26 26 25 25 25 25 24 23 22 22 22 22 22 22 22 22 21 21 20 20 20 20 20 21 21 20 20 20 21 21 21 21 21 21 21 21
29 30 30 30 30 29 28 27 27 27 27 27 26 26 25 25 24 24 24 24 24 24 24 23 23 23 22 22 23 23 23 23 23 23 23 23 23 23 23 23 23 23 23
29 30 30 30 31 30 30 29 29 29 28 29 28 27 27 27 26 25 25 26 26 26 26 26 26 25 25 25 25 25 25 25 25 26 26 26 26 26 26 26 25 25 25
30 31 31 31 31 31 31 30 30 30 30 30 30 29 29 29 28 27 27 27 27 27 27 28 28 27 27 27 27 28 28 28 28 28 28 28 28 28 28 28 28 28 27
31 31 32 33 33 33 32 31 30 31 31 31 31 31 31 30 30 29 29 29 29 29 29 30 30 30 29 29 29 29 29 29 30 30 30 30 30 31 30 30 30 30 30
31 32 33 34 34 34 34 33 32 33 33 33 32 33 33 33 33 32 32 32 32 32 32 32 32 32 32 32 32 31 31 31 31 31 32 32 32 32 32 32 32 32 31
32 33 34 36 35 35 35 34 34 34 34 34 34 34 34 34 35 34 34 33 34 34 33 34 34 33 33 33 33 33 33 33 33 33 34 35 35 34 34 34 34 34 34
32 33 34 35 36 36 36 35 35 35 35 35 35 35 36 36 35 35 35 35 35 35 35 35 35 34 34 34 34 33 33 34 35 35 36 36 36 36 36 36 35 36 36
33 33 33 34 36 37 37 36 35 35 35 36 36 36 35 36 36 35 36 35 35 36 36 35 35 35 36 36 35 35 35 35 36 36 36 36 36 36 37 36 37 38 38
33 33 33 34 36 37 37 37 37 35 35 37 37 37 37 37 37 37 37 36 36 36 36 36 36 37 37 36 36 37 37 38 37 37 37 37 36 37 37 38 38 38 38
33 33 34 35 35 36 37 38 37 37 36 36 37 37 38 38 37 36 37 37 37 37 36 37 37 38 38 38 38 38 38 38 39 39 38 37 38 38 39 39 39 39 40
33 33 34 35 36 36 36 37 38 37 37 36 37 38 38 39 38 38 37 37 37 37 37 37 37 38 38 38 38 39 39 39 39 39 38 38 38 38 39 40 40 40 40
33 33 35 36 36 36 36 37 38 38 37 37 37 37 39 39 39 39 39 39 38 38 38 37 37 38 38 38 38 38 39 39 39 39 39 39 39 39 40 40 40 40 40
33 34 35 37 37 38 37 37 39 39 38 39 39 39 39 39 40 41 40 40 39 39 39 39 38 38 39 39 39 39 40 40 40 38 38 38 39 40 40 41 40 39 39
34 35 36 37 38 38 38 38 40 41 40 39 41 40 39 40 40 41 40 40 41 41 40 40 41 40 41 41 40 41 41 41 41 40 39 40 40 41 40 40 40 40 39
35 36 37 37 38 38 39 39 39 40 41 41 42 43 42 41 41 41 41 41 41 41 41 41 42 42 42 42 42 42 42 42 42 41 41 41 41 41 41 41 41 41 41
Wind_Direction
245 246 247 246 245 246 247 245 242 235 228 228 227 228 226 225 227 229 237 243 249 256 266 272 272 275 287 300 306 306 305 295 281 275 267 248 244 249 260 269 274 285 302
245 245 245 246 245 245 244 244 242 239 232 231 231 232 233 237 238 239 244 251 253 259 269 276 281 283 282 290 297 299 297 289 282 276 269 261 260 261 266 272 276 284 286
245 245 244 244 244 245 244 244 243 242 238 235 235 235 239 244 248 251 252 255 257 260 265 274 278 281 279 281 284 287 287 284 276 272 272 271 269 267 268 270 274 277 278
244 245 244 243 243 244 244 243 243 243 240 238 238 239 243 246 250 255 256 258 260 262 266 271 272 274 276 275 276 279 279 277 274 273 273 272 272 272 272 273 275 275 277
243 244 244 243 243 244 244 243 243 243 243 242 242 243 246 248 251 254 257 261 261 264 267 269 271 272 273 273 274 276 274 273 272 272 273 274 273 273 273 274 273 275 276
242 242 243 244 244 244 244 244 244 243 245 245 244 245 248 250 253 256 258 260 260 263 266 269 270 271 272 273 273 273 272 272 274 273 272 273 273 273 274 275 274 274 275
242 242 243 243 244 245 245 245 245 246 247 248 247 246 249 251 253 255 255 258 258 260 264 268 270 270 270 270 269 269 269 272 274 275 274 273 273 272 273 274 275 276 277
243 242 243 245 245 245 246 246 247 247 247 249 250 248 250 251 252 255 256 257 258 259 261 264 267 269 269 269 267 267 268 271 273 274 274 274 273 272 272 273 274 275 276
244 244 244 245 246 246 246 246 246 248 248 249 249 250 251 252 252 254 255 257 258 260 261 263 265 267 268 267 267 267 269 272 274 274 274 274 275 274 273 273 273 274 275
245 245 245 246 247 247 247 246 246 247 248 249 249 251 252 252 253 256 256 255 257 258 260 262 264 266 267 268 268 269 270 273 274 274 274 274 274 274 274 274 274 275 275
246 245 245 245 245 246 245 245 246 248 248 250 250 251 252 253 254 257 257 256 256 257 258 260 261 264 266 268 269 270 272 273 273 273 274 275 275 274 274 274 274 275 275
248 246 246 246 246 246 246 245 246 247 249 250 251 252 253 254 254 256 257 257 256 257 258 259 260 262 265 267 269 270 271 272 272 273 273 274 273 273 273 273 274 274 273
248 247 245 245 245 245 245 246 245 246 248 250 250 252 253 254 255 255 256 257 257 257 259 260 261 262 264 267 269 270 271 271 272 272 273 273 273 272 272 273 272 272 272
250 248 246 244 244 245 245 245 246 246 248 249 250 252 253 253 255 256 255 256 258 259 260 261 262 263 265 267 268 270 271 271 271 272 273 273 273 272 272 271 270 271 271
250 248 247 245 244 244 244 245 247 247 248 250 251 252 252 253 255 257 257 258 259 260 261 263 263 264 266 268 269 270 270 271 272 272 273 273 273 273 271 270 270 270 270
252 250 249 246 244 243 243 246 248 248 248 249 250 251 252 254 255 257 258 259 260 261 262 264 264 265 266 268 269 270 271 271 271 272 272 273 274 274 272 270 270 270 270
254 253 251 247 244 243 243 245 248 248 248 249 250 252 252 253 254 257 260 259 259 261 262 264 265 265 266 268 269 270 271 272 272 272 273 274 274 273 272 272 271 270 269
256 255 253 248 244 243 244 245 246 248 249 250 251 252 252 252 254 256 259 258 259 260 261 263 265 266 267 268 269 270 271 272 273 273 273 274 273 272 273 272 271 271 270
256 255 252 248 244 243 244 244 245 247 249 250 251 252 253 253 254 256 258 259 260 261 261 263 265 266 267 268 268 269 271 273 274 274 274 274 273 273 272 272 272 272 270
255 254 253 249 246 245 246 247 246 247 249 250 251 252 253 255 256 257 259 260 261 262 263 263 265 267 268 268 269 270 271 273 274 274 275 274 273 274 273 272 272 272 271
255 254 253 249 247 246 247 248 248 247 248 250 251 253 252 254 258 260 260 261 262 263 264 265 265 267 268 268 269 270 271 274 275 274 275 276 276 276 276 273 272 271 271
253 253 253 250 247 247 247 248 248 248 247 250 252 253 252 254 256 258 261 261 262 265 266 267 267 268 269 269 269 269 270 272 274 275 275 275 276 276 276 274 272 271 270
253 253 252 251 249 249 248 248 249 250 249 250 252 252 253 254 254 257 259 262 263 264 266 268 268 268 269 270 270 270 271 272 273 274 274 274 274 275 274 273 273 271 270
253 253 253 252 252 251 250 249 250 251 251 252 253 254 254 255 256 257 260 262 264 264 266 267 268 269 269 269 270 271 272 273 273 273 274 274 275 276 275 273 271 269 270
255 254 254 254 254 253 251 252 252 252 253 254 254 255 255 256 258 259 261 263 263 265 266 267 268 270 270 269 270 270 271 272 273 273 273 274 276 277 277 275 272 269 270
256 256 256 255 254 255 254 254 254 254 255 255 256 257 258 259 260 261 262 264 264 265 266 267 269 270 271 271 271 270 270 271 271 272 273 273 273 275 275 275 274 272 271
Height
5836 5837 5838 5839 5840 5841 5842 5843 5844 5844 5845 5846 5847 5848 5849 5849 5850 5851 5852 5853 5853 5854 5855 5855 5856 5856 5857 5857 5857 5857 5857 5858 5858 5858 5858 5858 5859 5859 5859 5860 5860 5860 5860
5833 5834 5836 5837 5838 5839 5840 5840 5842 5843 5844 5844 5845 5846 5847 5848 5849 5850 5851 5852 5852 5853 5854 5854 5855 5855 5856 5856 5856 5856 5857 5857 5857 5857 5858 5858 5858 5858 5858 5859 5859 5859 5859
5830 5832 5833 5834 5835 5836 5837 5838 5840 5841 5842 5843 5844 5845 5846 5847 5848 5849 5850 5851 5851 5852 5853 5853 5854 5854 5855 5855 5855 5855 5856 5856 5856 5856 5857 5857 5857 5857 5858 5858 5858 5858 5858
5827 5828 5830 5831 5832 5834 5835 5836 5838 5838 5840 5841 5842 5843 5844 5845 5846 5847 5848 5849 5850 5850 5851 5852 5852 5853 5853 5854 5854 5854 5855 5855 5855 5855 5855 5856 5856 5856 5856 5856 5857 5857 5857
5823 5824 5826 5828 5829 5831 5832 5834 5835 5836 5837 5839 5840 5841 5842 5843 5844 5845 5846 5847 5848 5848 5849 5850 5850 5851 5851 5852 5852 5853 5853 5853 5853 5854 5854 5854 5854 5854 5854 5855 5855 5855 5855
5819 5820 5822 5824 5825 5827 5829 5830 5832 5833 5834 5835 5837 5838 5839 5840 5841 5842 5843 5844 5845 5846 5847 5847 5848 5849 5849 5850 5850 5850 5851 5851 5851 5852 5852 5852 5852 5852 5852 5852 5853 5853 5853
5814 5816 5818 5819 5821 5823 5825 5827 5828 5830 5831 5832 5833 5835 5836 5837 5838 5839 5841 5842 5843 5844 5844 5845 5845 5846 5846 5847 5847 5848 5848 5849 5849 5849 5850 5850 5850 5850 5850 5850 5850 5850 5850
5809 5811 5813 5815 5817 5819 5821 5823 5824 5826 5827 5828 5830 5831 5833 5834 5835 5836 5837 5838 5840 5841 5841 5842 5843 5843 5843 5844 5844 5845 5845 5846 5846 5846 5846 5847 5847 5847 5847 5847 5847 5847 5847
5804 5806 5808 5810 5812 5814 5816 5818 5820 5821 5823 5824 5826 5827 5829 5830 5831 5832 5834 5835 5836 5837 5838 5839 5839 5840 5840 5841 5841 5842 5842 5842 5843 5843 5843 5843 5843 5843 5844 5844 5844 5844 5843
5798 5800 5802 5805 5806 5808 5810 5812 5815 5817 5818 5820 5821 5823 5824 5826 5827 5828 5829 5830 5832 5833 5834 5835 5835 5836 5837 5837 5838 5838 5838 5839 5839 5839 5839 5839 5839 5839 5839 5840 5840 5840 5839
5792 5794 5796 5798 5800 5802 5805 5807 5809 5811 5813 5815 5816 5818 5820 5821 5823 5824 5825 5826 5827 5828 5829 5830 5831 5832 5832 5833 5833 5834 5834 5834 5834 5835 5835 5835 5835 5835 5835 5835 5835 5835 5835
5786 5788 5789 5791 5794 5796 5799 5801 5803 5806 5808 5810 5811 5813 5814 5816 5818 5819 5820 5821 5822 5823 5824 5826 5826 5827 5828 5828 5829 5829 5829 5830 5830 5830 5830 5830 5829 5829 5829 5829 5829 5829 5830
5779 5781 5783 5784 5787 5789 5792 5795 5797 5799 5802 5804 5806 5807 5809 5811 5812 5814 5815 5816 5817 5818 5819 5820 5821 5822 5823 5823 5824 5824 5824 5824 5824 5824 5824 5824 5823 5823 5823 5823 5823 5823 5824
5772 5774 5776 5778 5780 5783 5785 5788 5791 5793 5795 5797 5799 5801 5803 5805 5806 5808 5809 5810 5811 5812 5813 5814 5815 5816 5817 5817 5817 5818 5818 5818 5818 5818 5817 5817 5817 5817 5817 5817 5817 5817 5817
5765 5766 5768 5771 5773 5776 5778 5781 5784 5786 5788 5791 5793 5794 5796 5798 5800 5802 5803 5804 5805 5806 5807 5808 5809 5810 5810 5811 5811 5811 5811 5811 5811 5811 5810 5810 5810 5809 5809 5809 5809 5809 5810
5757 5759 5760 5763 5765 5768 5771 5774 5777 5779 5781 5784 5786 5788 5790 5792 5793 5795 5796 5797 5799 5800 5801 5802 5802 5803 5803 5804 5804 5804 5804 5803 5803 5803 5803 5802 5802 5801 5801 5801 5801 5801 5802
5749 5750 5752 5754 5757 5760 5764 5767 5769 5772 5774 5777 5779 5781 5783 5784 5786 5787 5789 5790 5792 5793 5794 5794 5795 5795 5796 5796 5796 5796 5796 5796 5796 5795 5795 5794 5793 5793 5793 5792 5792 5793 5793
5741 5742 5743 5745 5748 5752 5755 5759 5762 5764 5767 5769 5771 5774 5776 5777 5778 5780 5781 5783 5784 5785 5786 5787 5787 5788 5788 5788 5789 5788 5788 5788 5787 5787 5786 5785 5784 5784 5784 5784 5784 5784 5784
5734 5735 5736 5738 5741 5744 5747 5751 5754 5757 5759 5762 5764 5766 5768 5769 5770 5772 5773 5775 5776 5777 5778 5779 5779 5780 5780 5780 5781 5780 5780 5779 5779 5778 5777 5776 5775 5775 5775 5775 5775 5775 5775
5726 5728 5729 5731 5734 5737 5740 5743 5746 5749 5752 5754 5756 5758 5760 5762 5763 5764 5765 5767 5768 5769 5770 5771 5771 5772 5772 5772 5772 5772 5772 5771 5770 5769 5768 5767 5766 5766 5765 5765 5765 5765 5765
5719 5721 5722 5724 5727 5730 5733 5736 5738 5741 5744 5746 5748 5750 5752 5754 5755 5756 5757 5759 5760 5761 5762 5762 5763 5763 5763 5763 5764 5763 5763 5762 5761 5760 5759 5758 5757 5756 5755 5755 5755 5755 5754
5712 5714 5715 5717 5720 5723 5726 5728 5730 5732 5735 5738 5739 5742 5743 5745 5747 5748 5749 5750 5751 5752 5753 5753 5754 5754 5754 5754 5754 5754 5754 5754 5752 5751 5750 5749 5748 5746 5745 5744 5744 5744 5744
5705 5706 5708 5710 5712 5715 5718 5720 5722 5724 5727 5729 5731 5733 5735 5736 5738 5740 5741 5742 5743 5743 5744 5744 5744 5745 5745 5745 5744 5744 5744 5744 5744 5742 5740 5739 5738 5737 5736 5735 5734 5734 5734
5697 5698 5700 5702 5704 5706 5709 5711 5714 5716 5719 5721 5722 5724 5726 5728 5729 5730 5732 5733 5734 5734 5735 5735 5735 5736 5735 5735 5734 5734 5734 5733 5733 5733 5732 5730 5728 5727 5726 5725 5724 5724 5724
5689 5690 5692 5694 5696 5698 5700 5703 5705 5707 5709 5711 5713 5715 5717 5718 5720 5722 5723 5724 5724 5725 5725 5725 5726 5726 5726 5725 5725 5724 5723 5723 5722 5722 5723 5722 5719 5717 5716 5715 5715 5714 5714
5681 5682 5684 5686 5688 5690 5692 5694 5696 5698 5700 5702 5704 5706 5707 5709 5710 5712 5713 5714 5715 5715 5715 5715 5715 5715 5715 5715 5714 5713 5713 5713 5712 5711 5712 5711 5710 5708 5706 5706 5705 5704 5704